Regional Weather Roundup
Issued by NWS Northern Indiana

Home | Current Version | Previous Version | Text Only | Print | Product List | Glossary On
Versions: 1 2 3 4 5 6 7 8 9 10 11 12 13 14 15 16 17 18 19 20 21 22 23 24 25 26 27 28 29 30 31 32 33 34 35 36 37 38 39 40 41 42 43 44 45 46 47 48 49 50
222
ASUS43 KIWX 272010
RWRIWX

KIWX WEATHER ROUNDUP
NATIONAL WEATHER SERVICE NORTHERN INDIANA
400 PM EDT SAT AUG 27 2016

NOTE: "FAIR" INDICATES FEW OR NO CLOUDS BELOW 12,000 FEET WITH NO
SIGNIFICANT WEATHER AND/OR OBSTRUCTIONS TO VISIBILITY.

* THESE STATIONS ARE NOT UNDER NWS QUALITY CONTROL. THEY ALSO MAY NOT
  REPORT WEATHER SUCH AS PRECIPITATION OR FOG.

INZ001>027-272100-
NORTHERN INDIANA

CITY           SKY/WX    TMP DP  RH WIND       PRES   REMARKS
GARY*          PTSUNNY   84  72  65 S8        30.03F
VALPARAISO     MOSUNNY   83  71  67 S7        30.04F
MICHIGAN CITY* PTSUNNY   82  72  69 MISG      30.05S
LAPORTE*       MOSUNNY   84  76  78 SW8       30.06F
KNOX*          PTSUNNY   82  50  32 SW9       30.05S
SOUTH BEND     MOSUNNY   81  72  74 S12       30.06F
ELKHART*       MOSUNNY   81  72  74 S7        30.06F
GOSHEN         MOSUNNY   83  71  67 S8        30.06F
MONTICELLO*    MOSUNNY   83  69  63 S5        30.05F
LOGANSPORT*    PTSUNNY   81  70  69 SW8       30.08S
ROCHESTER*     MOSUNNY   82  73  74 S8        30.07F
WARSAW*        CLOUDY    81  75  83 S6        30.07F
ANGOLA*        SUNNY     79  73  83 S7        30.08F
FORT WAYNE     CLOUDY    79  70  74 S7        30.08F
HUNTINGTON*    CLOUDY    77  73  87 S6        30.08F
PERU/GRISSOM   PTSUNNY   83  71  67 S9        30.07F
MARION*        CLOUDY    76  71  84 S7        30.10S HAZE

$$
INZ028>050-272100-
CENTRAL INDIANA

CITY           SKY/WX    TMP DP  RH WIND       PRES   REMARKS
LAFAYETTE      MOSUNNY   83  72  69 S7        30.05F
KOKOMO*        CLOUDY    81  73  78 S10       30.08S
MUNCIE*        CLOUDY    77  73  87 SE5       30.10S
INDIANAPOLIS   MOSUNNY   80  71  74 S5        30.09F

$$
MIZ043>046-050>051-056>058-064>065-071>073-077>080-272100-
SOUTHWEST LOWER MICHIGAN

CITY           SKY/WX    TMP DP  RH WIND       PRES   REMARKS
BATTLE CREEK   PTSUNNY   75  72  90 S8        30.07F
BENTON HARBOR  MOSUNNY   82  71  69 S7        30.04F
COLDWATER*     CLOUDY    76  73  87 SE5       30.08S
HILLSDALE*     PTSUNNY   76  70  80 SE6       30.09F
HOLLAND        MOSUNNY   81  71  71 SW9       30.05F
GRAND RAPIDS   PTSUNNY   75  67  76 SE5       30.06F
KALAMAZOO      PTSUNNY   77  70  79 S9        30.06F
STURGIS*       CLOUDY    78  72  80 CALM      30.06F
THREE RIVERS*  FAIR      81  73  78 S8        30.06F

$$
OHZ001>008-015>018-024>025-272100-
NORTHWEST OHIO

CITY           SKY/WX    TMP DP  RH WIND       PRES   REMARKS
WAUSEON*       FAIR      79  73  83 E5        30.10S
DEFIANCE       PTSUNNY   80  69  69 CALM      30.09F
FINDLAY        MOSUNNY   79  69  71 W10       30.09F
TOLEDO EXPRESS CLOUDY    72  72 100 NE8       30.10F
TOLEDO METCALF LGT RAIN  73  73 100 NE8       30.12F
LIMA           CLOUDY    76  73  91 W7        30.10F

$$
AND FOR LAKE MICHIGAN COASTAL AND OPEN LAKE BUOY OBSERVATIONS

STATION/POSITION TEMP    WIND        PRES    VSBY  WAVE
                 AIR SEA DIR/SP/G                  HT/PER
                 (F)     (DEG/KT/KT) (MB)    (MI)  (FT/S)
CALUMET HARBOR    81     180/  8/ 11 1016.5F
MICHIGAN CITY     79     150/ 13/ 16   N/A
BURNS HARBOR      80     200/ 11/ 15 1017.6S
SAINT JOSEPH      79     230/  6/ 10 1018.3S
SOUTH LAKE BUOY   74 75  170/ 12/ 14 1016.3F         3/ 4
4 MI NW BRIDGMAN  78 76  190/  4/  6 1016.8F         1/ 2
MICHIGAN CITY     78 76  190/  6/  8   N/A           1

$$
&&




USA.gov is the U.S. government's official web portal to all federal, state and local government web resources and services.